Regional Weather Roundup
Issued by NWS Wakefield, VA

Home | Current Version | Previous Version | Graphics & Text | Print | Product List | Glossary On
Versions: 1 2 3 4 5 6 7 8 9 10 11 12 13 14 15 16 17 18 19 20 21 22 23 24 25 26 27
000
ASUS41 KAKQ 240815
RWRAKQ

REGIONAL WEATHER ROUNDUP
NATIONAL WEATHER SERVICE WAKEFIELD VA
400 AM EDT THU MAY 24 2018

Note: "fair" indicates few or no clouds below 12,000 feet with no
significant weather and/or obstructions to visibility. * = Denotes
station may not report precipitation (e.g., rain,snow,etc.),
thunder or fog.

VAZ042-051-052>054-056-240900-
NORTHERN VIRGINIA

CITY           SKY/WX    TMP DP  RH WIND       PRES   REMARKS
WASH NATIONAL  FAIR      65  58  78 E5        30.12R
DULLES         FAIR      59  57  93 NW3       30.13S
FORT BELVOIR   FAIR      57  56  97 CALM      30.12R
QUANTICO       FAIR      62  60  93 NW6       30.12S
FREDERICKSBRG* FAIR      61  58  91 CALM      30.12R
STAFFORD*      FAIR      58  58 100 CALM      30.15F
WARRENTON      FAIR      56  53  90 CALM      30.12F
CULPEPER*      FAIR      60  55  83 NW5       30.14S
MANASSAS*      FAIR      56  56 100 CALM      30.14R
LEESBURG*      FAIR      61  59  94 CALM      30.14R
WINCHESTER     FAIR      54  52  94 CALM      30.18S
FRONT ROYAL*   FAIR      57  55  94 S6        30.16S
LURAY*         FAIR      55  54  94 CALM      30.18S FOG
$$

VAZ048-049-060>072-079>083-240900-
CENTRAL AND SOUTH CENTRAL VIRGINIA

CITY           SKY/WX    TMP DP  RH WIND       PRES   REMARKS
RICHMOND       FAIR      64  58  80 N6        30.11S
CHESTERFIELD*  FAIR      61  59  93 CALM      30.12S
PETERSBURG*    FAIR      61  59  93 CALM      30.12F
HANOVER        FAIR      60  58  92 CALM      30.14R
TAPPAHANNOCK*  FAIR      60  59  97 CALM      30.12S
QUINTON*       FAIR      61  61 100 CALM      30.11S
CHARLOTTSVILLE FAIR      63  58  83 SW3       30.14S
GORDONSVILLE*  FAIR      57  57 100 CALM      30.13S
ORANGE*        FAIR      55  54  94 CALM      30.14R
LOUISA*        FAIR      53  53  97 CALM      30.18S FOG
BUMPASS*       FAIR      58  57  96 CALM      30.13S
FARMVILLE*     CLOUDY   N/A N/A N/A CALM      30.13S
CREWE*         PTSUNNY   63  63 100 CALM      30.13S
FORT PICKETT*  FAIR      66  62  89 N7        30.13S
CHASE CITY*    CLOUDY    69  61  76 NE3       30.13S
CLARKSVILLE*   FAIR      70  64  83 NE3       30.11S
SOUTH HILL*    MOCLDY    68  65  92 NE3       30.18S
LAWRENCEVILLE* CLOUDY    68  62  81 CALM      30.12S
EMPORIA*       FAIR      66  63  88 CALM      30.13R
$$

VAZ088>098-240900-
SOUTHEAST VIRGINIA

CITY           SKY/WX    TMP DP  RH WIND       PRES   REMARKS
NORFOLK        FAIR      71  67  87 N5        30.09S
VIRGINIA BEACH FAIR      62  62 100 VRB3      30.08S
NORFOLK NAVAL  FAIR      69  63  81 NW7       30.10S
WEST POINT*    FAIR      60  58  92 CALM      30.13R
SALUDA*        FAIR      65  65 100 CALM      30.10S
NEWPORT NEWS   FAIR      63  59  87 CALM      30.10S
LANGLEY AFB    FAIR      66  62  88 NE6       30.10S
FORT EUSTIS    FAIR      68  62  81 CALM      30.08S
WILLIAMSBURG*  FAIR      64  61  88 N3        30.11S
HR EXEC AP*    FAIR      58  57  97 CALM      30.10S
FRANKLIN*      FAIR      62  61  97 CALM      30.11S
US460-WAKEFLD  FAIR      63  61  93 CALM      30.11S FOG
$$

VAZ020-022-025-037-045-240900-
WEST CENTRAL AND SOUTHWEST VIRGINIA

CITY           SKY/WX    TMP DP  RH WIND       PRES   REMARKS
STAUNTON*      FAIR      56  54  94 CALM      30.20S
WAYNESBORO*    CLOUDY    60  58  93 CALM      30.19S
HOT SPRINGS VA CLOUDY    57  48  70 NE8       30.26S
LYNCHBURG      FAIR      65  58  78 CALM      30.15S
DANVILLE       FAIR      69  61  75 NE12      30.12R
SOUTH BOSTON*  PTSUNNY   67  61  79 NE5       30.12S
MARTINSVILLE   CLOUDY    65  60  83 N5        30.17R
ROANOKE        CLOUDY    69  58  67 N7        30.18S
BLACKSBURG     MOCLDY    65  59  81 NE3       30.22S
DUBLIN*        FAIR      60  59  96 CALM      30.20S
MARION*        FAIR      57  57  99 CALM      30.22R FOG
HILLSVILLE*    MOCLDY    61  58  91 NE6       30.19R
RICHLANDS*     FAIR      60  34  38 CALM      30.20S
WISE*          FAIR      61  61 100 CALM      30.21S
ABINGDON*      MOCLDY    66  62  86 SE3       30.16S
$$

MDZ021>025-VAZ099-100-240900-
SOUTHERN MARYLAND AND THE DELMARVA PENINSULA

CITY           SKY/WX    TMP DP  RH WIND       PRES   REMARKS
PATUXENT RIVER FAIR      68  58  70 NW8       30.09S
BAY BRIDGE APT FAIR      66  59  77 CALM      30.09S
LEONARDTOWN    FAIR      59  55  88 W5        30.12R
DOVER          FAIR      63  56  80 W3        30.07S
GEORGETOWN     FAIR      62  57  83 CALM      30.08S
EASTON         FAIR      63  60  91 NW3       30.12S
CAMBRIDGE      CLEAR     61  61 100 CALM      30.08S
SALISBURY      FAIR      58  57  97 CALM      30.08R
TANGIER        FAIR      72  66  83 NW12      30.08F
OCEAN CITY     FAIR      62  58  86 NW5       30.07S
WALLOPS ISLAND FAIR      64  59  83 MISG      30.08R
ACCOMACK*      FAIR      61  60  97 CALM      30.09R
$$

NCZ012>017-030>032-240900-
NORTH CENTRAL AND EASTERN NORTH CAROLINA

CITY           SKY/WX    TMP DP  RH WIND       PRES   REMARKS
ROANOKE RAPIDS CLOUDY    68  68 100 N5        30.10S
RALEIGH        MOCLDY    71  69  93 NE8       30.08S
ELIZABETH CITY FAIR      67  67 100 CALM      30.09S
AHOSKIE*       MOCLDY    66  66 100 CALM      30.10S
EDENTON*       FAIR      68  67  96 CALM      30.09F
CURRITUCK*     NOT AVBL
KILL DEVIL HLS FAIR      69  68  95 CALM      30.07S
MANTEO         FAIR      69  68  98 N3        30.08S
CAPE HATTERAS  MOCLDY    71  70  96 VRB5      30.07S
TARBORO*       NOT AVBL
GOLDSBORO      MOCLDY    71  70  97 CALM      30.05S
WASHINGTON     MOCLDY    69  68  97 CALM      30.08S
GREENVILLE     CLOUDY    70  70 100 CALM      30.09F
NEW BERN       CLOUDY    69  68  96 S5        30.09S
WILMINGTON     FAIR      73  67  81 W7        30.06F
$$

VAZ048-240900-
ELSEWHERE

CITY           SKY/WX    TMP DP  RH WIND       PRES   REMARKS
HARRISBURG PA  FAIR      59  56  89 N6        30.11R
BALTIMORE      FAIR      61  55  81 W6        30.09S
ANNAPOLIS        N/A    N/A N/A N/A MISG      30.09S
ANDREWS AFB    FAIR      63  57  79 W6        30.11S
PHILADELPHIA   FAIR      64  54  69 NW8       30.07S
HENDERSON NC   MOCLDY    67  63  85 NE10      30.11R
GREENSBORO     MOCLDY    69  66  90 NE12      30.09R
ROCKY MOUNT    CLOUDY    71  69  93 NE6       30.08S
$$

VAZ100-240900-
MARINE

STATION/POSITION TIME  TEMP    WIND        PRES    WAVE   SWELL
                       AIR SEA DIR/SP/G            HT/PER HT/PER
                 (UTC) (F)     (DEG/KT/KT) (MB)    (FT/S) (FT/S)
BRANDYWINE LGT   0748   68     320/  9/ 12 1018.4R
CAPE MAY NJ      0748   66 66   CALM  /  2 1017.4S
LEWES DE         0742   67 67  300/  7/  8 1017.9R
15NM E FENWICK I 0750   62 61  280/  6/  6 1018.1R   2/ 6   2/ 6
OCEAN-CITY-INLET 0742   67 65   10/  2/  3 1018.6R
WACHAPREAGUE VA  0742   64 76  270/  1/  3 1018.7R
THOMAS POINT MD  0800   67 69  300/ 10/ 11 1019.8S
GOOSES REEF MD   0800   69     340/ 12/ 12 1019.2    1/ 2
COVE POINT MD    0742   67     320/  7/  9 1019.4S
SOLOMONS ISLAND  0748   67 71  310/  3/  5 1018.9R
BISHOPS HEAD MD  0748   70 77  310/  7/  7 1019.2R
PINEY POINT MD   0748          330/ 11/ 13   N/A
POTOMAC MD       0800   70 72  300/  8/ 10 1018.5
CAMBRIDGE MD     0748   66 74              1019.5F
LEWISETTA VA     0748   67 76  290/  4/  5 1019.2R
RAPPAHANNOCK LGT 0748          320/  9/ 11 1019.5R
STINGRAY PT      0800   70 74  340/  8/ 10 1018.1    1
YORK RVR RNG VA  0748   71     340/  9/ 10 1019.8R
YORKTOWN VA      0748   70 74  320/  7/ 10 1018.8R
DOMINION TERM VA 0748   72      40/  1/  3 1019.4S
KIPTOPEKE VA     0742      71  360/  5/  7   N/A
CAPE HENRY VA    0748   72     330/  9/ 10   N/A
WILLOUBY STN VA  0748          340/  9/ 10   N/A
S CRANEY ISL VA  0748   71     330/  4/  6 1018.9S
CAPE HENRY BUOY  0800      69                N/A     2/ 8
1ST LANDING BUOY 0800   72 71   10/  8/ 10 1018.7    1/ 5
64NM E OF VA BCH 0750   67 67  320/  6/  6 1018.3R   3/ 6   3/ 6
DUCK PIER NC     0742   72 63  310/  7/  8 1018.2S
44100 DUCK FRF   0745      71                N/A     2/ 8
44056 DUCK FRF   0800      67                N/A     1/ 8
OREGON INLET NC  0742   71 78  290/  7/  8 1017.9F
HATTERAS NC      0748   73 75  300/  9/ 10 1017.9F
DIAMOND SHLS NC  0750   73 74  300/ 12/ 16 1018.2F   3/ 6   2/ 8
CAPE LOOKOUT NC  0800          230/  6/  7 1018.6S
$$




USA.gov is the U.S. government's official web portal to all federal, state and local government web resources and services.